TimeEDT,TemperatureF,Dew PointF,Humidity,Sea Level PressureIn,VisibilityMPH,Wind Direction,Wind SpeedMPH,Gust SpeedMPH,PrecipitationIn,Events,Conditions,WindDirDegrees,DateUTC
12:53 AM,68.0,54.0,61,29.93,10.0,North,15.0,20.7,N/A,,Mostly Cloudy,350,2013-07-25 04:53:00
1:53 AM,66.9,55.0,66,29.93,10.0,North,12.7,-,N/A,,Mostly Cloudy,360,2013-07-25 05:53:00
2:53 AM,66.0,54.0,65,29.94,10.0,North,18.4,27.6,N/A,,Overcast,10,2013-07-25 06:53:00
3:53 AM,64.0,51.1,63,29.95,10.0,North,20.7,28.8,N/A,,Overcast,10,2013-07-25 07:53:00
4:53 AM,62.1,48.0,60,29.97,10.0,North,15.0,23.0,N/A,,Overcast,360,2013-07-25 08:53:00
5:53 AM,62.1,46.9,58,29.98,10.0,North,12.7,23.0,N/A,,Overcast,10,2013-07-25 09:53:00
6:53 AM,62.1,46.9,58,30.00,10.0,North,11.5,20.7,N/A,,Overcast,360,2013-07-25 10:53:00
7:53 AM,61.0,48.0,62,30.01,10.0,North,15.0,-,N/A,,Overcast,10,2013-07-25 11:53:00
8:53 AM,61.0,48.9,64,30.04,10.0,North,11.5,-,0.00,,Overcast,10,2013-07-25 12:53:00
9:53 AM,59.0,51.1,75,30.05,10.0,North,10.4,-,0.01,Rain,Light Rain,10,2013-07-25 13:53:00
10:35 AM,57.2,51.8,82,30.06,3.0,NNE,9.2,-,0.06,Rain,Heavy Rain,20,2013-07-25 14:35:00
10:53 AM,57.9,53.1,84,30.06,3.0,NNE,10.4,-,0.08,Rain,Light Rain,20,2013-07-25 14:53:00
11:53 AM,60.1,55.0,83,30.06,10.0,NNE,11.5,-,0.02,Rain,Light Rain,20,2013-07-25 15:53:00
12:53 PM,61.0,55.9,83,30.07,10.0,North,9.2,-,0.01,Rain,Light Rain,10,2013-07-25 16:53:00
1:53 PM,62.1,57.0,84,30.06,10.0,NNE,9.2,-,0.00,Rain,Light Rain,30,2013-07-25 17:53:00
2:53 PM,62.1,57.0,84,30.06,10.0,NNE,8.1,-,0.01,,Overcast,20,2013-07-25 18:53:00
3:53 PM,63.0,57.0,81,30.06,10.0,North,11.5,-,0.00,Rain,Light Rain,10,2013-07-25 19:53:00
4:53 PM,63.0,57.9,84,30.05,10.0,NNE,10.4,-,0.00,Rain,Light Rain,20,2013-07-25 20:53:00
5:53 PM,63.0,57.9,84,30.05,10.0,North,8.1,-,0.00,Rain,Light Rain,10,2013-07-25 21:53:00
6:53 PM,63.0,59.0,87,30.05,7.0,North,8.1,-,0.01,Rain,Light Rain,10,2013-07-25 22:53:00
7:23 PM,62.6,59.0,88,30.06,10.0,NNE,5.8,-,0.02,Rain,Light Rain,30,2013-07-25 23:23:00
7:53 PM,63.0,59.0,87,30.06,8.0,NNE,9.2,-,0.02,Rain,Light Rain,20,2013-07-25 23:53:00
8:53 PM,62.1,57.9,86,30.05,10.0,NNE,9.2,-,0.00,,Overcast,20,2013-07-26 00:53:00
9:53 PM,62.1,57.9,86,30.05,10.0,NNE,12.7,17.3,N/A,,Overcast,30,2013-07-26 01:53:00
10:53 PM,61.0,57.9,90,30.04,10.0,NNE,11.5,-,0.00,,Overcast,20,2013-07-26 02:53:00
11:53 PM,62.1,57.9,86,30.04,10.0,NNE,9.2,-,N/A,,Overcast,20,2013-07-26 03:53:00